Zurück zum Katalog

BEIDOU 3M7

AktivNavigationMEO
NORAD 43245·PAYLOAD·🇨🇳 China

Gestartet Mar 29, 2018 von Xichang Satellite Launch Center

Loading…

Nächste Überflüge (nächste 24 Stunden)

TLE

AktuellSource: CelesTrak SupGP

Epoche: Sep 14, 2026, 00:00 UTC

1 43245C 18029A   26257.00000000  .00000000  00000+0  00000+0 0  2575
2 43245  54.1109 296.8345 0001778 238.2506  65.5055  1.86228576    18

Verfolge BEIDOU 3M7 in Echtzeit mit AllMySat

Download on the App Store